TimeEST,TemperatureF,Dew PointF,Humidity,Sea Level PressureIn,VisibilityMPH,Wind Direction,Wind SpeedMPH,Gust SpeedMPH,PrecipitationIn,Events,Conditions,WindDirDegrees,DateUTC
12:53 AM,43.0,37.9,82,29.96,10.0,South,4.6,-,N/A,,Clear,190,2012-12-07 05:53:00
1:53 AM,44.1,39.9,85,29.96,8.0,SW,5.8,-,N/A,,Mostly Cloudy,230,2012-12-07 06:53:00
2:53 AM,45.0,39.9,82,29.96,8.0,SW,5.8,-,N/A,,Mostly Cloudy,220,2012-12-07 07:53:00
3:53 AM,45.0,39.9,82,29.95,8.0,SSW,6.9,23.0,N/A,,Overcast,210,2012-12-07 08:53:00
4:53 AM,45.0,41.0,86,29.94,8.0,SW,4.6,-,N/A,,Overcast,220,2012-12-07 09:53:00
5:53 AM,45.0,41.0,86,29.96,8.0,West,4.6,-,N/A,,Mostly Cloudy,270,2012-12-07 10:53:00
6:53 AM,44.1,39.9,85,29.94,7.0,NW,4.6,-,N/A,,Overcast,310,2012-12-07 11:53:00
7:53 AM,45.0,42.1,90,29.98,5.0,North,-9999.0,-,0.00,Rain,Light Rain,0,2012-12-07 12:53:00
8:28 AM,44.6,42.8,93,29.97,2.5,SSW,3.5,-,0.01,Rain,Light Rain,200,2012-12-07 13:28:00
8:53 AM,45.0,43.0,93,29.98,1.8,Calm,Calm,-,0.02,Rain,Light Rain,0,2012-12-07 13:53:00
9:53 AM,45.0,43.0,93,29.98,2.0,South,5.8,-,0.02,Rain,Light Rain,170,2012-12-07 14:53:00
10:07 AM,46.4,42.8,87,29.98,2.0,South,4.6,-,0.00,,Overcast,180,2012-12-07 15:07:00
10:26 AM,46.4,42.8,87,29.98,2.5,South,4.6,-,0.00,,Overcast,180,2012-12-07 15:26:00
10:42 AM,46.4,42.8,87,29.97,2.5,South,5.8,-,0.00,,Overcast,180,2012-12-07 15:42:00
10:53 AM,46.9,43.0,86,29.98,3.0,South,6.9,-,0.00,,Overcast,180,2012-12-07 15:53:00
11:28 AM,46.4,44.6,93,29.96,2.5,South,3.5,-,0.01,Rain,Light Rain,180,2012-12-07 16:28:00
11:38 AM,46.4,44.6,93,29.95,3.0,Calm,Calm,-,0.02,Rain,Light Rain,0,2012-12-07 16:38:00
11:53 AM,46.9,44.1,90,29.95,3.0,Calm,Calm,-,0.03,Rain,Light Rain,0,2012-12-07 16:53:00
12:53 PM,46.9,44.1,90,29.92,3.0,South,4.6,-,0.03,Rain,Light Rain,170,2012-12-07 17:53:00
1:53 PM,46.9,44.1,90,29.89,5.0,South,4.6,-,0.03,Rain,Light Rain,170,2012-12-07 18:53:00
2:53 PM,46.9,43.0,86,29.86,5.0,SE,6.9,-,0.03,Rain,Light Rain,140,2012-12-07 19:53:00
3:53 PM,46.9,44.1,90,29.88,3.0,South,4.6,-,0.04,Rain,Light Rain,180,2012-12-07 20:53:00
4:24 PM,46.4,42.8,87,29.87,3.0,SE,3.5,-,0.02,Rain,Light Rain,140,2012-12-07 21:24:00
4:32 PM,46.4,42.8,87,29.87,4.0,ESE,5.8,-,0.02,Rain,Light Rain,120,2012-12-07 21:32:00
4:53 PM,46.0,44.1,93,29.87,4.0,SE,5.8,-,0.03,Rain,Light Rain,130,2012-12-07 21:53:00
5:48 PM,46.4,44.6,93,29.85,5.0,ESE,6.9,-,0.03,Rain,Light Rain,120,2012-12-07 22:48:00
5:53 PM,46.0,44.1,93,29.85,5.0,ESE,5.8,-,0.03,Rain,Light Rain,120,2012-12-07 22:53:00
6:29 PM,46.4,44.6,93,29.84,3.0,East,4.6,-,0.01,Rain,Light Rain,90,2012-12-07 23:29:00
6:40 PM,46.4,44.6,93,29.84,4.0,ENE,4.6,-,0.01,Rain,Light Rain,60,2012-12-07 23:40:00
6:53 PM,46.0,44.1,93,29.85,3.0,NE,5.8,-,0.02,Rain,Light Rain,40,2012-12-07 23:53:00
7:04 PM,46.4,44.6,93,29.84,2.5,NNE,6.9,-,0.01,Rain,Light Rain,30,2012-12-08 00:04:00
7:23 PM,46.4,44.6,93,29.85,1.8,North,5.8,-,0.08,Rain,Rain,10,2012-12-08 00:23:00
8:13 PM,46.4,44.6,93,29.84,1.8,North,5.8,-,0.04,Rain,Light Rain,10,2012-12-08 01:13:00
8:23 PM,46.4,44.6,93,29.84,2.0,NNE,5.8,-,0.04,Rain,Light Rain,20,2012-12-08 01:23:00
8:53 PM,46.0,44.1,93,29.83,2.5,ENE,6.9,-,0.05,Rain,Light Rain,70,2012-12-08 01:53:00
9:02 PM,46.4,44.6,93,29.83,3.0,ENE,6.9,-,0.00,,Overcast,70,2012-12-08 02:02:00
9:33 PM,46.4,44.6,93,29.83,4.0,East,5.8,-,0.00,,Overcast,90,2012-12-08 02:33:00
9:46 PM,46.4,44.6,93,29.83,1.8,Calm,Calm,-,0.01,Rain,Light Rain,0,2012-12-08 02:46:00
9:53 PM,46.0,44.1,93,29.83,2.0,East,5.8,-,0.01,Rain,Light Rain,100,2012-12-08 02:53:00
10:36 PM,46.4,44.6,93,29.83,1.8,Calm,Calm,-,0.00,,Overcast,0,2012-12-08 03:36:00
10:50 PM,46.4,44.6,93,29.82,2.0,Calm,Calm,-,0.01,,Overcast,0,2012-12-08 03:50:00
11:34 PM,46.4,44.6,93,29.83,1.8,Calm,Calm,-,N/A,,Overcast,0,2012-12-08 04:34:00
11:53 PM,46.9,45.0,93,29.83,1.0,Calm,Calm,-,N/A,,Overcast,0,2012-12-08 04:53:00